Location: Unspecified
(53.5511°N, 9.9937°E)
Time: 17:35:14
(UTC+00:00)

ISS - Pass Details

Date: 23 February 2019
Orbit: 406 x 411 km, 51.6° (Epoch: 21 March)

Event Time Altitude Azimuth Distance (km) Brightness Sun altitude
Rises 05:29:34 0° 193° (SSW) 2,316 -0.1 -8.5°
Reaches altitude 10° 05:33:09 10° 152° (SSE) 1,463 -0.5 -8.0°
Maximum altitude 05:33:51 11° 139° (SE) 1,434 -0.3 -7.9°
Drops below altitude 10° 05:34:33 10° 127° (SE) 1,466 0.0 -7.8°
Sets 05:38:09 0° 86° (E) 2,334 2.1 -7.3°
